FW3682 Weather Reports


time (UTC)temp
C
wind
direction
speed
KPH
gust
KPH
rain 1hr
cm
rain 24hr
cm
rain mn
cm
humidity
%
barometer
mb
20260505034526 17 57 1.6 9.7 0.00 0.00 0.00 51 1016.5
20260505033035 17 106 4.8 16.1 0.00 0.00 0.00 51 1016.5
20260505031530 17 84 1.6 19.3 0.00 0.00 0.00 50 1016.5
20260505030028 17 135 1.6 11.3 0.00 0.00 0.00 50 1016.5
20260505024544 17 99 1.6 12.9 0.00 0.00 0.00 50 1016.5
20260505023036 17 90 1.6 8.0 0.00 0.00 0.00 50 1016.4
20260505021610 17 91 0.0 6.4 0.00 0.00 0.00 50 1016.3
20260505020031 17 74 0.0 8.0 0.00 0.00 0.00 49 1016.2
20260505014536 18 0 1.6 9.7 0.00 0.00 0.00 48 1016.2
20260505013028 18 0 1.6 6.4 0.00 0.00 0.00 48 1016.1
20260505011528 18 94 1.6 9.7 0.00 0.00 0.00 46 1016.1
20260505010027 18 140 4.8 14.5 0.00 0.00 0.00 46 1015.9
20260505004530 18 82 0.0 6.4 0.00 0.00 0.00 45 1015.6
20260505003029 19 108 1.6 9.7 0.00 0.00 0.00 45 1015.2
20260505001529 20 0 0.0 4.8 0.00 0.00 0.00 43 1015.2
20260505000032 20 0 1.6 8.0 0.00 0.00 0.00 42 1015.2
20260504234528 20 0 0.0 4.8 0.00 0.00 0.00 42 1015.1
20260504233028 20 0 1.6 6.4 0.00 0.00 0.00 41 1015.0
20260504231527 20 319 0.0 6.4 0.00 0.00 0.00 40 1015.1
20260504230027 21 93 1.6 14.5 0.00 0.00 0.00 39 1015.1
20260504224535 21 0 0.0 11.3 0.00 0.00 0.00 40 1014.9
20260504223030 21 72 1.6 11.3 0.00 0.00 0.00 38 1015.1
20260504221530 22 0 3.2 16.1 0.00 0.00 0.00 37 1015.2
20260504220030 22 159 4.8 20.9 0.00 0.00 0.00 37 1015.1
20260504214528 22 53 6.4 22.5 0.00 0.00 0.00 36 1015.1
20260504213028 22 355 4.8 19.3 0.00 0.00 0.00 36 1015.1
20260504211528 22 81 4.8 14.5 0.00 0.00 0.00 36 1015.0
20260504210037 23 72 3.2 19.3 0.00 0.00 0.00 36 1015.2
20260504204537 23 92 3.2 17.7 0.00 0.00 0.00 34 1015.2
20260504203031 23 355 4.8 16.1 0.00 0.00 0.00 35 1015.4
20260504201529 23 93 6.4 16.1 0.00 0.00 0.00 33 1015.5
20260504200030 23 86 4.8 17.7 0.00 0.00 0.00 33 1015.7
20260504194530 23 352 1.6 12.9 0.00 0.00 0.00 35 1015.7
20260504193028 23 148 4.8 12.9 0.00 0.00 0.00 33 1016.0
20260504191528 23 88 3.2 11.3 0.00 0.00 0.00 34 1016.1
20260504190027 23 112 1.6 19.3 0.00 0.00 0.00 33 1016.3
20260504184528 23 71 6.4 17.7 0.00 0.00 0.00 33 1016.5
20260504183027 23 95 4.8 14.5 0.00 0.00 0.00 33 1016.7
20260504181530 22 65 3.2 14.5 0.00 0.00 0.00 34 1016.9
20260504180030 22 133 4.8 14.5 0.00 0.00 0.00 32 1017.1
20260504174527 22 95 3.2 11.3 0.00 0.00 0.00 33 1017.0
20260504173030 22 136 6.4 12.9 0.00 0.00 0.00 33 1017.2
20260504171528 21 82 1.6 12.9 0.00 0.00 0.00 36 1017.4
20260504081531 7 0 0.0 0.0 0.00 0.00 0.00 75 1017.7
20260504044528 12 0 0.0 9.7 0.00 0.00 0.00 60 1018.0
20260504043030 12 0 0.0 6.4 0.00 0.00 0.00 59 1018.0
20260504041540 12 92 1.6 6.4 0.00 0.00 0.00 59 1017.7
20260504040032 12 93 3.2 9.7 0.00 0.00 0.00 58 1017.9